星链-34682 (STARLINK-34682)

导读

STARLINK-34682是美国太空探索技术公司(SpaceX)星链(Starlink)星座的卫星,于2025年7月19日由美国发射升空,属于星链星座第二代扩容卫星。星链项目旨在构建全球卫星互联网星座,为全球提供高速低延迟的宽带互联网服务,该卫星进一步扩充了星链星座的规模与服务覆盖能力。

Basic Information
目录编号:
64854
目录名称:
STARLINK-34682
国际标识:
2025-152N
轨道中心:
EARTH
卫星名称:
星链-34682
卫星全名:
星链-34682 (STARLINK-34682)
卫星状态:
在轨 (已飞行412 天)
发射日期:
2025-07-19 UTC
国别 :
美国 (US)
星等 :
--
Orbit Information
数据来源 国际轨道数据
星历时间: 2026-09-03T10:56:28+0800
1天前
查看轨道信息
半长轴: 6843.659km
偏心率: 0.000167
轨道倾角: 97.284°
近地点辐角 82.734°
升交点赤经 96.974°
平近点角 277.410°
近地点: 464.379km
远地点: 466.665km
周期: 93.906分钟
每日圈数: 15.334522
Detailed Information
固有亮度:
5
最大亮度:
2.5
卫星平台:
Starlink V1.0
覆盖范围:
全球
运营商:
太空探索技术公司
运营商所在国:
美国
制造商(研发单位):
太空探索技术公司
制造商所在国:
美国
使用方式:
暂无
Satellite Introduction
Starlink 计划是 SpaceX 推出的全球卫星互联网项目,通过发射低轨道卫星,为全球尤其是偏远地区提供高速、低延迟的互联网服务。自 2019 年起,Starlink 已部署数千颗卫星,旨在缩小全球数字鸿沟,推动互联网普及。该项目还为军事、航空等行业提供通信支持,带来广泛经济效益。
2D Orbit Map
3D Orbit Map
Orbit Altitude Analysis Chart
Orbit Inclination Analysis Chart
Orbit Comprehensive Analysis Chart
View Comprehensive Chart
Conjunction Data List
Event ID Objects TCA Miss Dist (km) Collision Risk Probability Collision Risk Index (CRI) Action
CDM_260905-045404-939806-485421
OBJECT D (49398)
2026-09-05T
04:54:06+0000
2.134 km
极远距离
2.466377E-6 低风险 0.43
CDM_260905-101904-837706-485421
2026-09-05T
10:19:34+0000
2.781 km
极远距离
1.413502E-6 低风险 0.38
CDM_260906-132204-843306-485421
2026-09-06T
13:22:37+0000
2.513 km
极远距离
1.349432E-6 低风险 0.38
CDM_260904-093805-198506-485422
2026-09-04T
09:38:24+0000
2.953 km
极远距离
1.341915E-6 低风险 0.38
CDM_260905-060204-829306-485421
2026-09-05T
06:02:05+0000
2.941 km
极远距离
1.327168E-6 低风险 0.37
CDM_260905-135204-815106-485421
2026-09-05T
13:52:44+0000
2.962 km
极远距离
1.037307E-6 低风险 0.35
CDM_260905-231304-843806-485421
2026-09-05T
23:13:45+0000
2.846 km
极远距离
9.656373E-7 极低风险 0.35
CDM_260905-085104-945806-485421
2026-09-05T
08:51:46+0000
2.787 km
极远距离
9.114975E-7 极低风险 0.34